Spokane Felts, WA
on Friday, December 28, 2012

Friday
Previous Day Next Day
Daily Summary
 ActualAverageRecord
Temperature
Mean Temperature °F 29°F  
Max Temperature 34°F 35°F 60°F (2008)
Min Temperature 28°F 23°F 14°F (1996)
Degree Days
Heating Degree Days 34 36  
Month to date heating degree days 778 987  
Since 1 July heating degree days 2051 2561  
Cooling Degree Days 0 0  
Month to date cooling degree days 0 0  
Year to date cooling degree days 509 406  
Moisture
Dew Point 26°F   
Average Humidity 79    
Maximum Humidity 85    
Minimum Humidity 72    
Precipitation
Precipitation T in 0.08 in 0.42 in (2005)
Month to date precipitation 1.75 2.35  
Year to date precipitation 20.51 17.57  
Wind
Wind Speed 1 mph   
Max Wind Speed 8 mph   
Max Gust Speed 9 mph   
Visibility 9 miles   
Events Snow   

Key: T is trace of precipitation, MM is missing value
Source: NWS Daily Summary
Time(PST)TemperatureDew PointHumidity Pressure Visibility Wind DirectionWind SpeedGust SpeedPrecipitationEvents Conditions
12:35 AM 30.2°F 26.6°F 86% 30.13 in 8.0 miles WSW 3.5 mph - N/A   Overcast
12:53 AM 30.9°F 27.0°F 85% 30.19 in 8.0 miles Calm Calm - 0.00 in   Overcast
1:31 AM 30.2°F 26.6°F 86% 30.15 in 5.0 miles SW 4.6 mph - 0.00 in Snow Light Snow
1:53 AM 30.9°F 27.0°F 85% 30.20 in 5.0 miles Calm Calm - 0.00 in   Overcast
2:53 AM 30.2°F 26.6°F 86% 30.14 in 4.0 miles Calm Calm - N/A Snow Light Snow
3:42 AM 30.2°F 26.6°F 86% 30.15 in 7.0 miles West 3.5 mph - 0.00 in   Overcast
3:53 AM 30.9°F 26.1°F 82% 30.20 in 9.0 miles West 3.5 mph - 0.00 in   Overcast
4:53 AM 30.9°F 26.1°F 82% 30.20 in 10.0 miles Calm Calm - N/A   Overcast
5:34 AM 30.2°F 26.6°F 86% 30.15 in 9.0 miles Calm Calm - N/A   Overcast
5:51 AM 30.2°F 26.6°F 86% 30.15 in 10.0 miles Calm Calm - N/A   Overcast
5:53 AM 30.9°F 26.1°F 82% 30.20 in 10.0 miles Calm Calm - N/A   Overcast
6:53 AM 30.9°F 26.1°F 82% 30.22 in 10.0 miles Calm Calm - N/A   Overcast
7:53 AM 30.2°F 26.6°F 86% 30.16 in 10.0 miles Calm Calm - N/A   Overcast
8:53 AM 30.9°F 27.0°F 85% 30.23 in 8.0 miles Calm Calm - N/A   Overcast
9:53 AM 32.0°F 27.0°F 82% 30.24 in 6.0 miles Calm Calm - N/A   Haze
10:53 AM 32.0°F 26.1°F 79% 30.24 in 10.0 miles SSW 5.8 mph - N/A   Overcast
11:53 AM 32.0°F 26.1°F 79% 30.22 in 10.0 miles SSW 4.6 mph - N/A   Overcast
12:53 PM 33.1°F 27.0°F 78% 30.22 in 10.0 miles Calm Calm - N/A   Overcast
1:53 PM 34.0°F 27.0°F 75% 30.22 in 10.0 miles Calm Calm - N/A   Overcast
2:53 PM 34.0°F 27.0°F 75% 30.23 in 10.0 miles Calm Calm - N/A   Overcast
3:53 PM 32.0°F 27.0°F 82% 30.23 in 10.0 miles Calm Calm - N/A   Mostly Cloudy
4:53 PM 32.0°F 26.1°F 79% 30.23 in 10.0 miles Calm Calm - N/A   Mostly Cloudy
5:53 PM 32.0°F 26.1°F 79% 30.23 in 10.0 miles Calm Calm - N/A   Overcast
6:53 PM 32.0°F 25.0°F 75% 30.23 in 10.0 miles Calm Calm - N/A   Scattered Clouds
7:53 PM 32.0°F 26.1°F 79% 30.23 in 10.0 miles Calm Calm - N/A   Mostly Cloudy
8:53 PM 30.0°F 25.0°F 82% 30.24 in 10.0 miles Calm Calm - N/A   Clear
9:53 PM 30.9°F 26.1°F 82% 30.24 in 10.0 miles Calm Calm - N/A   Clear
10:53 PM 30.0°F 26.1°F 85% 30.24 in 10.0 miles Calm Calm - N/A   Clear
11:53 PM 28.0°F 24.1°F 85% 30.24 in 7.0 miles Calm Calm - N/A   Clear
Moon Phase
Dec. 28 Jan. 04 Jan. 11 Jan. 18 Jan. 26
Sunrise:07:37 AM (PST) Moon Rise:04:50 PM (PST)12/28
Sunset:04:04 PM (PST) Moon Set:07:30 AM (PST)12/28

Copyright © 2014 The Weather Underground, Inc.